| time (UTC) | temp F | wind direction | speed MPH | gust MPH | rain 1hr in | rain 24hr in | rain mn in | humidity % | barometer mb |
| 20260503202209 | 55 | 21 | 3.0 | 3.0 | 0.06 | 0.11 | 0.11 | 87 | 1005.8 |
| 20260503201705 | 55 | 21 | 2.0 | 3.0 | 0.06 | 0.11 | 0.11 | 87 | 1005.8 |
| 20260503194205 | 56 | 355 | 5.0 | 6.0 | 0.03 | 0.07 | 0.07 | 85 | 1006.3 |
| 20260503193706 | 56 | 293 | 2.0 | 3.0 | 0.02 | 0.06 | 0.06 | 85 | 1006.7 |
| 20260503193205 | 56 | 22 | 1.0 | 3.0 | 0.01 | 0.05 | 0.05 | 84 | 1006.7 |
| 20260503192705 | 56 | 23 | 2.0 | 5.0 | 0.00 | 0.04 | 0.04 | 84 | 1006.4 |
| 20260503192206 | 56 | 22 | 3.0 | 7.0 | 0.00 | 0.04 | 0.04 | 84 | 1006.4 |
| 20260503191705 | 56 | 350 | 5.0 | 6.0 | 0.00 | 0.04 | 0.04 | 83 | 1006.4 |
| 20260503191204 | 56 | 339 | 4.0 | 6.0 | 0.00 | 0.04 | 0.04 | 83 | 1006.0 |
| 20260503185705 | 57 | 353 | 2.0 | 2.0 | 0.00 | 0.04 | 0.04 | 82 | 1006.0 |
| 20260503185206 | 57 | 353 | 3.0 | 5.0 | 0.00 | 0.04 | 0.04 | 81 | 1005.9 |
| 20260503184205 | 57 | 0 | 5.0 | 6.0 | 0.00 | 0.04 | 0.04 | 81 | 1005.8 |
| 20260503183705 | 57 | 7 | 3.0 | 6.0 | 0.00 | 0.04 | 0.04 | 81 | 1005.7 |
| 20260503183205 | 57 | 9 | 5.0 | 6.0 | 0.00 | 0.04 | 0.04 | 80 | 1005.7 |
| 20260503180205 | 58 | 353 | 3.0 | 5.0 | 0.00 | 0.04 | 0.04 | 80 | 1005.9 |
| 20260503174205 | 59 | 9 | 1.0 | 3.0 | 0.00 | 0.04 | 0.04 | 79 | 1006.2 |
| 20260503173204 | 59 | 9 | 2.0 | 3.0 | 0.00 | 0.04 | 0.04 | 79 | 1006.2 |
| 20260503172705 | 59 | 9 | 2.0 | 3.0 | 0.00 | 0.04 | 0.04 | 78 | 1006.3 |
| 20260503171705 | 59 | 8 | 2.0 | 3.0 | 0.00 | 0.04 | 0.04 | 77 | 1006.3 |
| 20260503170205 | 59 | 16 | 3.0 | 7.0 | 0.00 | 0.04 | 0.04 | 75 | 1006.3 |
| 20260503150704 | 63 | 288 | 4.0 | 6.0 | 0.00 | 0.04 | 0.04 | 67 | 1007.6 |
| 20260503131204 | 62 | 215 | 3.0 | 5.0 | 0.00 | 0.04 | 0.04 | 79 | 1008.8 |
| 20260503120206 | 58 | 254 | 3.0 | 5.0 | 0.04 | 0.04 | 0.04 | 83 | 1009.3 |
| 20260503110206 | 60 | 262 | 5.0 | 7.0 | 0.00 | 0.00 | 0.00 | 72 | 1009.6 |
| 20260503081207 | 55 | 312 | 2.0 | 5.0 | 0.00 | 0.00 | 0.00 | 83 | 1009.9 |
| 20260503080206 | 55 | 243 | 3.0 | 6.0 | 0.00 | 0.00 | 0.00 | 83 | 1009.9 |
| 20260503072205 | 53 | 292 | 2.0 | 3.0 | 0.00 | 0.00 | 0.00 | 86 | 1009.8 |
| 20260503071706 | 53 | 294 | 4.0 | 6.0 | 0.00 | 0.00 | 0.00 | 87 | 1009.7 |
| 20260503070705 | 52 | 321 | 2.0 | 3.0 | 0.00 | 0.00 | 0.00 | 87 | 1009.6 |
| 20260503070205 | 52 | 318 | 3.0 | 5.0 | 0.00 | 0.00 | 0.00 | 87 | 1009.6 |
| 20260503060206 | 51 | 323 | 3.0 | 6.0 | 0.00 | 0.00 | 0.00 | 88 | 1009.4 |
| 20260503054705 | 51 | 320 | 9.0 | 13.0 | 0.00 | 0.00 | 0.00 | 87 | 1009.5 |
| 20260503053708 | 51 | 307 | 5.0 | 13.0 | 0.00 | 0.00 | 0.00 | 87 | 1009.5 |
| 20260503053206 | 51 | 310 | 6.0 | 14.0 | 0.00 | 0.00 | 0.00 | 87 | 1009.4 |
| 20260503045706 | 52 | 291 | 7.0 | 10.0 | 0.00 | 0.00 | 0.00 | 88 | 1009.4 |
| 20260503045207 | 52 | 292 | 5.0 | 10.0 | 0.00 | 0.00 | 0.00 | 88 | 1009.4 |
| 20260503044206 | 52 | 287 | 5.0 | 8.0 | 0.00 | 0.00 | 0.00 | 88 | 1009.2 |
| 20260503043705 | 51 | 278 | 5.0 | 10.0 | 0.00 | 0.00 | 0.00 | 88 | 1009.2 |
| 20260503042205 | 51 | 242 | 2.0 | 5.0 | 0.00 | 0.00 | 0.00 | 87 | 1009.4 |
| 20260503041705 | 50 | 237 | 1.0 | 3.0 | 0.00 | 0.00 | 0.00 | 87 | 1009.4 |
| 20260503035705 | 50 | 189 | 1.0 | 6.0 | 0.00 | 0.00 | 0.00 | 86 | 1009.6 |
| 20260503035205 | 50 | 167 | 4.0 | 6.0 | 0.00 | 0.00 | 0.00 | 85 | 1009.6 |
| 20260503034205 | 50 | 158 | 3.0 | 3.0 | 0.00 | 0.00 | 0.00 | 85 | 1009.3 |
| 20260503033206 | 51 | 166 | 4.0 | 6.0 | 0.00 | 0.00 | 0.00 | 84 | 1009.1 |
| 20260503032206 | 51 | 178 | 5.0 | 6.0 | 0.00 | 0.00 | 0.00 | 84 | 1009.1 |
| 20260503031706 | 51 | 188 | 3.0 | 6.0 | 0.00 | 0.00 | 0.00 | 84 | 1009.2 |
| 20260503030205 | 51 | 198 | 5.0 | 6.0 | 0.00 | 0.00 | 0.00 | 83 | 1009.5 |
| 20260503025207 | 52 | 190 | 3.0 | 6.0 | 0.00 | 0.00 | 0.00 | 82 | 1009.5 |
| 20260503024205 | 52 | 214 | 3.0 | 7.0 | 0.00 | 0.00 | 0.00 | 82 | 1009.4 |
| 20260503022706 | 52 | 188 | 4.0 | 8.0 | 0.00 | 0.00 | 0.00 | 80 | 1009.3 |
| 20260503021206 | 52 | 204 | 3.0 | 7.0 | 0.00 | 0.00 | 0.00 | 78 | 1009.4 |
| 20260503020207 | 52 | 175 | 6.0 | 8.0 | 0.00 | 0.00 | 0.00 | 77 | 1009.4 |
| 20260503015706 | 52 | 217 | 5.0 | 10.0 | 0.00 | 0.00 | 0.00 | 76 | 1009.4 |
| 20260503013206 | 52 | 193 | 5.0 | 7.0 | 0.00 | 0.00 | 0.00 | 73 | 1009.4 |
| 20260503012706 | 53 | 180 | 3.0 | 6.0 | 0.00 | 0.00 | 0.00 | 72 | 1009.4 |
| 20260503012205 | 53 | 204 | 4.0 | 7.0 | 0.00 | 0.00 | 0.00 | 71 | 1009.4 |
| 20260503011705 | 53 | 210 | 4.0 | 5.0 | 0.00 | 0.00 | 0.00 | 70 | 1009.5 |
| 20260503011205 | 53 | 185 | 4.0 | 5.0 | 0.00 | 0.00 | 0.00 | 70 | 1009.5 |
| 20260503010706 | 53 | 185 | 2.0 | 5.0 | 0.00 | 0.00 | 0.00 | 69 | 1009.5 |
| 20260503005706 | 53 | 158 | 4.0 | 6.0 | 0.00 | 0.00 | 0.00 | 68 | 1009.4 |
| 20260503004206 | 54 | 165 | 2.0 | 3.0 | 0.00 | 0.00 | 0.00 | 67 | 1009.5 |
| 20260503003706 | 54 | 165 | 1.0 | 2.0 | 0.00 | 0.00 | 0.00 | 67 | 1009.5 |
| 20260503003205 | 54 | 165 | 3.0 | 5.0 | 0.00 | 0.00 | 0.00 | 66 | 1009.4 |
| 20260503002705 | 55 | 166 | 3.0 | 5.0 | 0.00 | 0.00 | 0.00 | 66 | 1009.5 |
| 20260503001706 | 55 | 179 | 4.0 | 5.0 | 0.00 | 0.00 | 0.00 | 66 | 1009.5 |
| 20260502235205 | 55 | 178 | 4.0 | 6.0 | 0.00 | 0.00 | 0.00 | 64 | 1009.8 |
| 20260502234207 | 56 | 165 | 5.0 | 6.0 | 0.00 | 0.00 | 0.00 | 63 | 1009.9 |
| 20260502233208 | 56 | 158 | 3.0 | 5.0 | 0.00 | 0.00 | 0.00 | 62 | 1010.1 |
| 20260502231705 | 57 | 157 | 3.0 | 5.0 | 0.00 | 0.00 | 0.00 | 61 | 1010.3 |
| 20260502231205 | 57 | 166 | 5.0 | 6.0 | 0.00 | 0.00 | 0.00 | 61 | 1010.3 |
| 20260502224206 | 58 | 230 | 2.0 | 5.0 | 0.00 | 0.00 | 0.00 | 58 | 1010.4 |
| 20260502223705 | 58 | 197 | 3.0 | 6.0 | 0.00 | 0.00 | 0.00 | 58 | 1010.4 |
| 20260502222706 | 59 | 185 | 3.0 | 5.0 | 0.00 | 0.00 | 0.00 | 57 | 1010.4 |
| 20260502215206 | 61 | 177 | 3.0 | 5.0 | 0.00 | 0.00 | 0.00 | 55 | 1010.5 |
| 20260502214206 | 61 | 217 | 3.0 | 5.0 | 0.00 | 0.00 | 0.00 | 54 | 1010.5 |
| 20260502212206 | 62 | 175 | 4.0 | 6.0 | 0.00 | 0.00 | 0.00 | 54 | 1010.6 |
| 20260502211706 | 62 | 181 | 3.0 | 5.0 | 0.00 | 0.00 | 0.00 | 54 | 1010.6 |
| 20260502210206 | 62 | 164 | 4.0 | 6.0 | 0.00 | 0.00 | 0.00 | 52 | 1010.7 |
| 20260502205706 | 62 | 183 | 3.0 | 5.0 | 0.00 | 0.00 | 0.00 | 51 | 1010.7 |
| 20260502205205 | 62 | 187 | 3.0 | 5.0 | 0.00 | 0.00 | 0.00 | 51 | 1010.8 |
| 20260502204705 | 62 | 251 | 3.0 | 5.0 | 0.00 | 0.00 | 0.00 | 50 | 1010.7 |
| 20260502204205 | 63 | 251 | 3.0 | 5.0 | 0.00 | 0.00 | 0.00 | 51 | 1010.7 |
| 20260502202705 | 63 | 251 | 3.0 | 3.0 | 0.00 | 0.00 | 0.00 | 51 | 1010.7 |